Home > Weather > Kloten > Past weeks

Flag for Switzerland Past Weather in Kloten, Zurich, Switzerland — Yesterday and Last 2 Weeks

Now
63 °F

Partly cloudy.


Feels Like: 63 °F
Forecast: 56 / 84 °F
Wind: 1 mph from North

Location: Zurich-Kloten

Current Time: Jul 29, 2016 at 4:21:31 AM

Latest Report: Jul 29, 2016 at 3:50 AM


Visibility: N/A

Pressure: 30.07 "Hg

Humidity: 88%

Dew Point: 59 °F

Location of KlotenLocation

Past Weather in Kloten — Graph

°F

Kloten Temperature Yesterday

Maximum temperature yesterday: 77 °F (at 1:50 PM)
Minimum temperature yesterday: 57 °F (at 4:50 AM)
Average temperature yesterday: 68 °F

High & Low Weather Summary for the Past Weeks

 TemperatureHumidityPressure
High91 °F (Jul 20, 5:20 PM)100% (Jul 15, 12:20 AM)30.36 "Hg (Jul 15, 12:20 AM)
Low45 °F (Jul 16, 3:50 AM)31% (Jul 20, 3:20 PM)29.98 "Hg (Jul 20, 6:20 PM)
Average68 °F74%30.14 "Hg
* Reported Jul 14 3:20 AM — Jul 29 3:20 AM, Kloten, Weather by CustomWeather, © 2016

Note: Actual official high and low records may vary slightly from our data, if they occured in-between our weather recording intervals... More about our weather records

Advertising

Kloten Weather History for the Previous 24 Hours

Scroll right to see more
 ConditionsComfort  
Time TempWeatherWind HumidityBarometerVisibility
3:20 AM
Fri, Jul 29
63 °FPassing clouds.1 mph88%30.07 "HgN/A
2:50 AM63 °FPassing clouds.2 mph88%30.07 "HgN/A
2:20 AM63 °FPassing clouds.1 mph88%30.07 "HgN/A
1:50 AM64 °FPartly cloudy.1 mph83%30.07 "HgN/A
1:20 AM64 °FPartly cloudy.1 mph83%30.07 "HgN/A
12:50 AM64 °FPartly cloudy.No wind83%30.07 "HgN/A
12:20 AM66 °FPartly cloudy.1 mph78%30.07 "HgN/A
11:50 PM
Thu, Jul 28
68 °FPassing clouds.2 mph69%30.07 "HgN/A
11:20 PM66 °FClear.2 mph73%30.07 "Hg10 mi
10:50 PM66 °FPassing clouds.No wind78%30.07 "HgN/A
10:20 PM66 °FPassing clouds.1 mph78%30.07 "HgN/A
9:50 PM66 °FScattered clouds.1 mph78%30.07 "HgN/A
9:20 PM66 °FScattered clouds.3 mph78%30.07 "HgN/A
8:50 PM70 °FScattered clouds.7 mph64%30.07 "HgN/A
8:20 PM72 °FPartly sunny.9 mph61%30.07 "HgN/A
7:50 PM73 °FSunny.8 mph57%30.07 "Hg10 mi
7:20 PM73 °FSunny.8 mph57%30.07 "Hg10 mi
6:50 PM75 °FSunny.9 mph54%30.04 "Hg10 mi
6:20 PM75 °FScattered clouds.8 mph54%30.04 "HgN/A
5:50 PM75 °FPartly sunny.9 mph57%30.04 "HgN/A
5:20 PM75 °FScattered clouds.12 mph54%30.04 "HgN/A
4:50 PM77 °FPassing clouds.10 mph54%30.07 "HgN/A
4:20 PM77 °FScattered clouds.10 mph54%30.07 "HgN/A
3:50 PM75 °FScattered clouds.8 mph57%30.07 "HgN/A
3:20 PM75 °FBroken clouds.9 mph57%30.07 "HgN/A
2:50 PM75 °FBroken clouds.9 mph54%30.07 "HgN/A
2:20 PM77 °FBroken clouds.7 mph51%30.07 "HgN/A
1:50 PM77 °FScattered clouds.6 mph51%30.09 "HgN/A
1:20 PM75 °FScattered clouds.6 mph54%30.09 "HgN/A
12:50 PM75 °FScattered clouds.5 mph54%30.09 "HgN/A
12:20 PM75 °FPassing clouds.6 mph54%30.09 "HgN/A
11:50 AM73 °FScattered clouds.5 mph61%30.09 "HgN/A
11:20 AM73 °FScattered clouds.5 mph57%30.09 "HgN/A
10:50 AM72 °FScattered clouds.3 mph61%30.09 "HgN/A
10:20 AM70 °FScattered clouds.3 mph69%30.12 "HgN/A
9:50 AM70 °FScattered clouds.1 mph69%30.09 "HgN/A
9:20 AM66 °FPartly sunny.2 mph83%30.09 "HgN/A
8:50 AM66 °FSunny.1 mph78%30.09 "Hg10 mi
8:20 AM64 °FPartly sunny.1 mph83%30.09 "HgN/A
7:50 AM63 °FPartly sunny.2 mph88%30.09 "HgN/A
7:20 AM61 °FScattered clouds.2 mph94%30.09 "HgN/A
6:50 AM59 °FPassing clouds.3 mph94%30.09 "HgN/A
6:20 AM59 °FPassing clouds.2 mph94%30.09 "HgN/A
5:50 AM59 °FPassing clouds.2 mph94%30.09 "HgN/A
5:20 AM59 °FPassing clouds.1 mph94%30.09 "HgN/A
4:50 AM57 °FPassing clouds.3 mph100%30.09 "HgN/A
4:20 AM59 °FClear.3 mph94%30.09 "Hg10 mi
Weather by CustomWeather, © 2016

See weather overviewHow to use our weather pages